Tracking 28790 objects as of 19-Apr-2024
HD Live streaming from Space Station
objects crossing your sky now

OPS 4682 DEB

Track OPS 4682 DEB now!
10-day predictions


NORAD ID: 38397
Int'l Code: 1965-027DA
Perigee: 1,241.8 km
Apogee: 1,300.9 km
Inclination: 90.2 °
Period: 110.8 minutes
Semi major axis: 7642 km
RCS: 0.0089 m2 (small)
Launch date: April 3, 1965
Source: United States (US)
Launch site: AIR FORCE WESTERN TEST RANGE (AFWTR)

Note: This is SATELLITE DEBRIS
Your satellite tracking list
Your tracking list is empty




NASA's NSSDC Master Catalog

Two Line Element Set (TLE):
1 38397U 65027DA  24110.13645141  .00001065  00000-0  35304-2 0  9992
2 38397  90.2460 359.7284 0038663 179.9983 180.1146 12.99453390233579
Source of the keplerian elements: AFSPC